Regional Weather Roundup
Issued by NWS

Home | Current Version | Previous Version | Graphics & Text | Print | Product List | Glossary On
Versions: 1 2 3 4 5 6 7 8 9 10 11 12 13 14 15 16 17 18 19 20 21 22 23 24 25 26 27 28 29 30 31 32 33 34 35 36 37 38 39 40 41 42 43 44 45 46 47 48 49 50
000
ASUS43 KIND 280059
RWRIN

WEATHER ROUNDUP FOR INDIANA
NATIONAL WEATHER SERVICE INDIANAPOLIS IN
900 PM EDT SAT AUG 27 2016

NOTE: "FAIR" INDICATES FEW OR NO CLOUDS BELOW 12,000 FEET WITH NO
SIGNIFICANT WEATHER AND/OR OBSTRUCTIONS TO VISIBILITY.

* - STATION DOES NOT REPORT WEATHER SUCH AS PRECIPITATION OR FOG.

+ - STATION NOT QUALITY CONTROLLED BY THE NATIONAL WEATHER SERVICE.
    USE DATA WITH CAUTION...ESPECIALLY DEWPOINT AND RELATIVE
    HUMIDITY OBSERVATIONS.

INZ001>003-010>013-019-020-280200-
NORTHWEST INDIANA

CITY           SKY/WX    TMP DP  RH WIND       PRES   REMARKS
GARY /AIRPORT/ MOCLDY    79  73  83 S7        30.05R
KNOX *+        CLEAR     73  55  53 S5        30.06R
MONTICELLO +   CLEAR     79  70  74 CALM      30.07S

$$

LMZ046-743>745-280200-
SOUTHERN LAKE MICHIGAN

STATION/POSITION TIME  TEMP    WIND        PRES    WAVE
                       AIR SEA DIR/SP/G            HT
                 (UTC) (F)     (DEG/KT/KT) (MB)    (FT)
BURNS HARBOR     0000   82     190/  8/ 18 1017.3R
MICHIGAN CITY    0000   81     170/  8/  9   N/A
5NW MICH CITY    0000   80 76  180/  6/  8   N/A     1

$$

INZ004-005-014>016-021>024-280200-
NORTH CENTRAL INDIANA

CITY           SKY/WX    TMP DP  RH WIND       PRES   REMARKS
GOSHEN         CLEAR     77  70  79 SE7       30.08R
PERU/GRISSOM   CLEAR     77  74  90 SE2       30.09R
SOUTH BEND     CLEAR     77  73  87 S8        30.08R

$$

INZ006>009-017-018-025>027-280200-
NORTHEAST INDIANA

CITY           SKY/WX    TMP DP  RH WIND       PRES   REMARKS
ANGOLA *+      CLEAR     73  66  78 S5        30.11R
FORT WAYNE     PTCLDY    74  70  87 CALM      30.11R

$$

INZ028-029-035-036-043>045-051>053-280200-
WEST CENTRAL INDIANA

CITY           SKY/WX    TMP DP  RH WIND       PRES   REMARKS
CRAWFORDSVL +  CLEAR     74  74 100 SE6       30.10R
LAFAYETTE      CLEAR     79  73  82 CALM      30.08R
TERRE HAUTE    CLEAR     77  72  84 CALM      30.09R

$$

INZ030>032-037>040-046>048-054>057-064-065-280200-
CENTRAL INDIANA

CITY           SKY/WX    TMP DP  RH WIND       PRES   REMARKS
COLUMBUS       CLEAR     77  75  94 SE3       30.11R
INDIANAPOLIS   CLOUDY    80  71  74 SE3       30.11R
-EAGLE CREEK   CLEAR     80  72  76 CALM      30.10R
KOKOMO *+      CLEAR     75  72  88 S8        30.10R
MT COMFORT *+  PTCLDY    75  72  88 CALM      30.12S
SHELBYVILLE    CLOUDY    78  73  84 S3        30.11R

$$

INZ033-034-041-042-049-050-058-059-280200-
EAST CENTRAL INDIANA

CITY           SKY/WX    TMP DP  RH WIND       PRES   REMARKS
MUNCIE         PTCLDY    76  72  87 CALM      30.12R

$$

INZ060-061-067>069-081>083-085>088-280200-
SOUTHWEST INDIANA

CITY           SKY/WX    TMP DP  RH WIND       PRES   REMARKS
EVANSVILLE     MOCLDY    84  75  74 CALM      30.07R
HUNTINGBURG *+ CLOUDY    81  73  78 CALM      30.08S

$$

INZ062-063-066-070>080-084-089>092-280200-
SOUTH CENTRAL AND SOUTHEAST INDIANA

CITY           SKY/WX    TMP DP  RH WIND       PRES   REMARKS
BLOOMINGTON    PTCLDY    76  73  91 CALM      30.11R
MADISON *+     MOCLDY    77  72  83 E3        30.13S

$$




USA.gov is the U.S. government's official web portal to all federal, state and local government web resources and services.